Wetterdaten: Freitag, 17.07.2015
Datum Zeit Temp. A. Feuchte A. Luftdruck Regen Wind Richtung Richtung Sonnenschein ET UV Solar Taupunkt Windchill Windben Empfang
17.07.2015 00:00 21,2 C 64 % 1014,3 hPa 0,0 l/m 0,0 km/h (0 Bft) O-NO 66 0 min 0,000 mm 0,0 UV-I 0 W/m 14,1 C 21,2 C 0,0 km/h (0 Bft) 0,00 %
17.07.2015 00:05 21,1 C 65 % 1014,4 hPa 0,0 l/m 0,0 km/h (0 Bft) O-NO 66 0 min 0,000 mm 0,0 UV-I 0 W/m 14,3 C 21,1 C 0,0 km/h (0 Bft) 0,00 %
17.07.2015 00:10 21,0 C 68 % 1014,5 hPa 0,0 l/m 0,0 km/h (0 Bft) NO 45 0 min 0,000 mm 0,0 UV-I 0 W/m 14,9 C 21,0 C 0,0 km/h (0 Bft) 0,00 %
17.07.2015 00:15 20,9 C 68 % 1014,7 hPa 0,0 l/m 0,0 km/h (0 Bft) O-NO 65 0 min 0,000 mm 0,0 UV-I 0 W/m 14,8 C 20,9 C 0,0 km/h (0 Bft) 0,00 %
17.07.2015 00:20 20,8 C 70 % 1014,7 hPa 0,0 l/m 0,0 km/h (0 Bft) O-NO 65 0 min 0,000 mm 0,0 UV-I 0 W/m 15,1 C 20,8 C 0,0 km/h (0 Bft) 0,00 %
17.07.2015 00:25 20,7 C 71 % 1014,8 hPa 0,0 l/m 0,0 km/h (0 Bft) O-NO 65 0 min 0,000 mm 0,0 UV-I 0 W/m 15,2 C 20,7 C 0,0 km/h (0 Bft) 0,00 %
17.07.2015 00:30 20,6 C 71 % 1014,8 hPa 0,0 l/m 0,0 km/h (0 Bft) O-NO 65 0 min 0,000 mm 0,0 UV-I 0 W/m 15,2 C 20,6 C 0,0 km/h (0 Bft) 0,00 %
17.07.2015 00:35 20,3 C 71 % 1015,0 hPa 0,0 l/m 0,0 km/h (0 Bft) NO 44 0 min 0,000 mm 0,0 UV-I 0 W/m 14,9 C 20,3 C 0,0 km/h (0 Bft) 0,00 %
17.07.2015 00:40 20,1 C 72 % 1014,8 hPa 0,0 l/m 0,0 km/h (0 Bft) NO 43 0 min 0,000 mm 0,0 UV-I 0 W/m 14,9 C 20,1 C 0,0 km/h (0 Bft) 0,00 %
17.07.2015 00:45 19,9 C 72 % 1014,8 hPa 0,0 l/m 0,0 km/h (0 Bft) NO 42 0 min 0,000 mm 0,0 UV-I 0 W/m 14,7 C 19,9 C 0,0 km/h (0 Bft) 0,00 %
17.07.2015 00:50 19,8 C 72 % 1014,9 hPa 0,0 l/m 0,0 km/h (0 Bft) NO 43 0 min 0,000 mm 0,0 UV-I 0 W/m 14,6 C 19,8 C 0,0 km/h (0 Bft) 0,00 %
17.07.2015 00:55 19,8 C 73 % 1014,8 hPa 0,0 l/m 0,0 km/h (0 Bft) NO 40 0 min 0,000 mm 0,0 UV-I 0 W/m 14,8 C 19,8 C 0,0 km/h (0 Bft) 0,00 %
17.07.2015 01:00 19,7 C 74 % 1014,9 hPa 0,0 l/m 0,0 km/h (0 Bft) NO 41 0 min 0,000 mm 0,0 UV-I 0 W/m 14,9 C 19,7 C 0,0 km/h (0 Bft) 0,00 %
17.07.2015 01:05 19,7 C 75 % 1014,9 hPa 0,0 l/m 0,0 km/h (0 Bft) NO 52 0 min 0,000 mm 0,0 UV-I 0 W/m 15,1 C 19,7 C 0,0 km/h (0 Bft) 0,00 %
17.07.2015 01:10 19,6 C 75 % 1014,8 hPa 0,0 l/m 0,0 km/h (0 Bft) NO 52 0 min 0,000 mm 0,0 UV-I 0 W/m 15,0 C 19,6 C 0,0 km/h (0 Bft) 0,00 %
17.07.2015 01:15 19,5 C 76 % 1014,8 hPa 0,0 l/m 0,0 km/h (0 Bft) NO 46 0 min 0,000 mm 0,0 UV-I 0 W/m 15,2 C 19,5 C 0,0 km/h (0 Bft) 0,00 %
17.07.2015 01:20 19,3 C 77 % 1015,0 hPa 0,0 l/m 0,0 km/h (0 Bft) NO 47 0 min 0,000 mm 0,0 UV-I 0 W/m 15,2 C 19,3 C 0,0 km/h (0 Bft) 0,00 %
17.07.2015 01:25 19,2 C 78 % 1015,2 hPa 0,0 l/m 0,0 km/h (0 Bft) NO 46 0 min 0,000 mm 0,0 UV-I 0 W/m 15,3 C 19,2 C 0,0 km/h (0 Bft) 0,00 %
17.07.2015 01:30 19,2 C 78 % 1015,1 hPa 0,0 l/m 0,0 km/h (0 Bft) NO 48 0 min 0,000 mm 0,0 UV-I 0 W/m 15,3 C 19,2 C 0,0 km/h (0 Bft) 0,00 %
17.07.2015 01:35 19,1 C 78 % 1015,0 hPa 0,0 l/m 0,0 km/h (0 Bft) NO 48 0 min 0,000 mm 0,0 UV-I 0 W/m 15,2 C 19,1 C 0,0 km/h (0 Bft) 0,00 %
17.07.2015 01:40 19,1 C 78 % 1015,1 hPa 0,0 l/m 0,0 km/h (0 Bft) NO 52 0 min 0,000 mm 0,0 UV-I 0 W/m 15,2 C 19,1 C 0,0 km/h (0 Bft) 0,00 %
17.07.2015 01:45 19,0 C 79 % 1015,1 hPa 0,0 l/m 0,0 km/h (0 Bft) NO 52 0 min 0,000 mm 0,0 UV-I 0 W/m 15,3 C 19,0 C 0,0 km/h (0 Bft) 0,00 %
17.07.2015 01:50 19,0 C 78 % 1015,1 hPa 0,0 l/m 0,0 km/h (0 Bft) NO 52 0 min 0,000 mm 0,0 UV-I 0 W/m 15,1 C 19,0 C 0,0 km/h (0 Bft) 0,00 %
17.07.2015 01:55 18,9 C 79 % 1015,1 hPa 0,0 l/m 0,0 km/h (0 Bft) NO 52 0 min 0,000 mm 0,0 UV-I 0 W/m 15,2 C 18,9 C 0,0 km/h (0 Bft) 0,00 %
17.07.2015 02:00 18,9 C 79 % 1015,2 hPa 0,0 l/m 0,0 km/h (0 Bft) NO 52 0 min 0,000 mm 0,0 UV-I 0 W/m 15,2 C 18,9 C 0,0 km/h (0 Bft) 0,00 %
17.07.2015 02:05 18,8 C 79 % 1015,1 hPa 0,0 l/m 0,0 km/h (0 Bft) NO 52 0 min 0,000 mm 0,0 UV-I 0 W/m 15,1 C 18,8 C 0,0 km/h (0 Bft) 0,00 %
17.07.2015 02:10 18,8 C 79 % 1015,2 hPa 0,0 l/m 0,0 km/h (0 Bft) NO 52 0 min 0,000 mm 0,0 UV-I 0 W/m 15,1 C 18,8 C 0,0 km/h (0 Bft) 0,00 %
17.07.2015 02:15 18,8 C 78 % 1015,3 hPa 0,0 l/m 0,0 km/h (0 Bft) NO 52 0 min 0,000 mm 0,0 UV-I 0 W/m 14,9 C 18,8 C 0,0 km/h (0 Bft) 0,00 %
17.07.2015 02:20 18,9 C 78 % 1015,1 hPa 0,0 l/m 0,0 km/h (0 Bft) NO 52 0 min 0,000 mm 0,0 UV-I 0 W/m 15,0 C 18,9 C 0,0 km/h (0 Bft) 0,00 %
17.07.2015 02:25 18,9 C 78 % 1015,0 hPa 0,0 l/m 0,0 km/h (0 Bft) NO 52 0 min 0,000 mm 0,0 UV-I 0 W/m 15,0 C 18,9 C 0,0 km/h (0 Bft) 0,00 %
17.07.2015 02:30 18,9 C 78 % 1015,2 hPa 0,0 l/m 0,0 km/h (0 Bft) NO 52 0 min 0,000 mm 0,0 UV-I 0 W/m 15,0 C 18,9 C 0,0 km/h (0 Bft) 0,00 %
17.07.2015 02:35 18,9 C 78 % 1015,1 hPa 0,0 l/m 0,0 km/h (0 Bft) NO 52 0 min 0,000 mm 0,0 UV-I 0 W/m 15,0 C 18,9 C 0,0 km/h (0 Bft) 0,00 %
17.07.2015 02:40 18,9 C 78 % 1015,1 hPa 0,0 l/m 0,0 km/h (0 Bft) NO 52 0 min 0,000 mm 0,0 UV-I 0 W/m 15,0 C 18,9 C 0,0 km/h (0 Bft) 0,00 %
17.07.2015 02:45 18,9 C 78 % 1015,1 hPa 0,0 l/m 0,0 km/h (0 Bft) NO 52 0 min 0,000 mm 0,0 UV-I 0 W/m 15,0 C 18,9 C 0,0 km/h (0 Bft) 0,00 %
17.07.2015 02:50 18,8 C 79 % 1015,3 hPa 0,0 l/m 0,0 km/h (0 Bft) NO 47 0 min 0,000 mm 0,0 UV-I 0 W/m 15,1 C 18,8 C 0,0 km/h (0 Bft) 0,00 %
17.07.2015 02:55 18,6 C 78 % 1015,3 hPa 0,0 l/m 0,0 km/h (0 Bft) NO 49 0 min 0,000 mm 0,0 UV-I 0 W/m 14,7 C 18,6 C 0,0 km/h (0 Bft) 0,00 %
17.07.2015 03:00 18,5 C 79 % 1015,4 hPa 0,0 l/m 0,0 km/h (0 Bft) NO 43 0 min 0,000 mm 0,0 UV-I 0 W/m 14,8 C 18,5 C 0,0 km/h (0 Bft) 0,00 %
17.07.2015 03:05 18,4 C 80 % 1015,5 hPa 0,0 l/m 0,0 km/h (0 Bft) NO 54 0 min 0,000 mm 0,0 UV-I 0 W/m 14,9 C 18,4 C 0,0 km/h (0 Bft) 0,00 %
17.07.2015 03:10 18,3 C 81 % 1015,3 hPa 0,0 l/m 0,0 km/h (0 Bft) NO 54 0 min 0,000 mm 0,0 UV-I 0 W/m 15,0 C 18,3 C 0,0 km/h (0 Bft) 0,00 %
17.07.2015 03:15 18,2 C 82 % 1015,6 hPa 0,0 l/m 0,0 km/h (0 Bft) NO 54 0 min 0,000 mm 0,0 UV-I 0 W/m 15,1 C 18,2 C 0,0 km/h (0 Bft) 0,00 %
17.07.2015 03:20 18,0 C 83 % 1015,4 hPa 0,0 l/m 0,0 km/h (0 Bft) N 356 0 min 0,000 mm 0,0 UV-I 0 W/m 15,1 C 18,0 C 0,0 km/h (0 Bft) 0,00 %
17.07.2015 03:25 17,9 C 83 % 1015,5 hPa 0,0 l/m 0,0 km/h (0 Bft) NO 50 0 min 0,000 mm 0,0 UV-I 0 W/m 15,0 C 17,9 C 0,0 km/h (0 Bft) 0,00 %
17.07.2015 03:30 17,7 C 83 % 1015,6 hPa 0,0 l/m 0,0 km/h (0 Bft) N 353 0 min 0,000 mm 0,0 UV-I 0 W/m 14,8 C 17,7 C 0,0 km/h (0 Bft) 0,00 %
17.07.2015 03:35 17,6 C 83 % 1015,5 hPa 0,0 l/m 0,0 km/h (0 Bft) NO 51 0 min 0,000 mm 0,0 UV-I 0 W/m 14,7 C 17,6 C 0,0 km/h (0 Bft) 0,00 %
17.07.2015 03:40 17,5 C 84 % 1015,6 hPa 0,0 l/m 0,0 km/h (0 Bft) NO 51 0 min 0,000 mm 0,0 UV-I 0 W/m 14,8 C 17,5 C 0,0 km/h (0 Bft) 0,00 %
17.07.2015 03:45 17,5 C 84 % 1015,5 hPa 0,0 l/m 0,0 km/h (0 Bft) NO 51 0 min 0,000 mm 0,0 UV-I 0 W/m 14,8 C 17,5 C 0,0 km/h (0 Bft) 0,00 %
17.07.2015 03:50 17,5 C 84 % 1015,5 hPa 0,0 l/m 0,0 km/h (0 Bft) NO 52 0 min 0,000 mm 0,0 UV-I 0 W/m 14,8 C 17,5 C 0,0 km/h (0 Bft) 0,00 %
17.07.2015 03:55 17,5 C 84 % 1015,6 hPa 0,0 l/m 0,0 km/h (0 Bft) NO 52 0 min 0,000 mm 0,0 UV-I 0 W/m 14,8 C 17,5 C 0,0 km/h (0 Bft) 0,00 %
17.07.2015 04:00 17,4 C 84 % 1015,7 hPa 0,0 l/m 0,0 km/h (0 Bft) NO 52 0 min 0,000 mm 0,0 UV-I 0 W/m 14,7 C 17,4 C 0,0 km/h (0 Bft) 0,00 %
17.07.2015 04:05 17,4 C 84 % 1015,5 hPa 0,0 l/m 0,0 km/h (0 Bft) NO 40 0 min 0,000 mm 0,0 UV-I 0 W/m 14,7 C 17,4 C 0,0 km/h (0 Bft) 0,00 %
17.07.2015 04:10 17,4 C 84 % 1015,9 hPa 0,0 l/m 0,0 km/h (0 Bft) NO 38 0 min 0,000 mm 0,0 UV-I 0 W/m 14,7 C 17,4 C 0,0 km/h (0 Bft) 0,00 %
17.07.2015 04:15 17,4 C 84 % 1015,7 hPa 0,0 l/m 0,0 km/h (0 Bft) N-NO 30 0 min 0,000 mm 0,0 UV-I 0 W/m 14,7 C 17,4 C 0,0 km/h (0 Bft) 0,00 %
17.07.2015 04:20 17,3 C 85 % 1015,7 hPa 0,0 l/m 0,0 km/h (0 Bft) O 79 0 min 0,000 mm 0,0 UV-I 0 W/m 14,8 C 17,3 C 0,0 km/h (0 Bft) 0,00 %
17.07.2015 04:25 17,1 C 86 % 1015,9 hPa 0,0 l/m 0,0 km/h (0 Bft) O-NO 62 0 min 0,000 mm 0,0 UV-I 0 W/m 14,7 C 17,1 C 0,0 km/h (0 Bft) 0,00 %
17.07.2015 04:30 16,9 C 86 % 1015,9 hPa 0,0 l/m 0,0 km/h (0 Bft) O 81 0 min 0,000 mm 0,0 UV-I 0 W/m 14,5 C 16,9 C 0,0 km/h (0 Bft) 0,00 %
17.07.2015 04:35 16,8 C 86 % 1016,1 hPa 0,0 l/m 0,0 km/h (0 Bft) NO 53 0 min 0,000 mm 0,0 UV-I 0 W/m 14,4 C 16,8 C 0,0 km/h (0 Bft) 0,00 %
17.07.2015 04:40 16,8 C 86 % 1016,2 hPa 0,0 l/m 0,0 km/h (0 Bft) NO 51 0 min 0,000 mm 0,0 UV-I 0 W/m 14,4 C 16,8 C 0,0 km/h (0 Bft) 0,00 %
17.07.2015 04:45 16,8 C 85 % 1016,2 hPa 0,0 l/m 0,0 km/h (0 Bft) NO 45 0 min 0,000 mm 0,0 UV-I 0 W/m 14,3 C 16,8 C 0,0 km/h (0 Bft) 0,00 %
17.07.2015 04:50 16,8 C 86 % 1016,3 hPa 0,0 l/m 0,0 km/h (0 Bft) NO 41 0 min 0,000 mm 0,0 UV-I 0 W/m 14,4 C 16,8 C 0,0 km/h (0 Bft) 0,00 %
17.07.2015 04:55 16,8 C 86 % 1016,2 hPa 0,0 l/m 0,0 km/h (0 Bft) NO 48 0 min 0,000 mm 0,0 UV-I 0 W/m 14,4 C 16,8 C 0,0 km/h (0 Bft) 0,00 %
17.07.2015 05:00 16,7 C 86 % 1016,2 hPa 0,0 l/m 0,0 km/h (0 Bft) NO 50 0 min 0,000 mm 0,0 UV-I 0 W/m 14,3 C 16,7 C 0,0 km/h (0 Bft) 0,00 %
17.07.2015 05:05 16,7 C 85 % 1016,1 hPa 0,0 l/m 0,0 km/h (0 Bft) NO 45 0 min 0,000 mm 0,0 UV-I 0 W/m 14,2 C 16,7 C 0,0 km/h (0 Bft) 0,00 %
17.07.2015 05:10 16,7 C 85 % 1016,0 hPa 0,0 l/m 0,0 km/h (0 Bft) NO 45 0 min 0,000 mm 0,0 UV-I 0 W/m 14,2 C 16,7 C 0,0 km/h (0 Bft) 0,00 %
17.07.2015 05:15 16,7 C 85 % 1016,2 hPa 0,0 l/m 0,0 km/h (0 Bft) NO 42 0 min 0,000 mm 0,0 UV-I 0 W/m 14,2 C 16,7 C 0,0 km/h (0 Bft) 0,00 %
17.07.2015 05:20 16,6 C 85 % 1016,3 hPa 0,0 l/m 0,0 km/h (0 Bft) NO 45 0 min 0,000 mm 0,0 UV-I 0 W/m 14,1 C 16,6 C 0,0 km/h (0 Bft) 0,00 %
17.07.2015 05:25 16,5 C 86 % 1016,2 hPa 0,0 l/m 0,0 km/h (0 Bft) NO 45 0 min 0,000 mm 0,0 UV-I 0 W/m 14,1 C 16,5 C 0,0 km/h (0 Bft) 0,00 %
17.07.2015 05:30 16,5 C 86 % 1016,2 hPa 0,0 l/m 0,0 km/h (0 Bft) NO 47 0 min 0,000 mm 0,0 UV-I 0 W/m 14,1 C 16,5 C 0,0 km/h (0 Bft) 0,00 %
17.07.2015 05:35 16,6 C 86 % 1015,9 hPa 0,0 l/m 0,0 km/h (0 Bft) NO 39 0 min 0,000 mm 0,0 UV-I 4 W/m 14,2 C 16,6 C 0,0 km/h (0 Bft) 0,00 %
17.07.2015 05:40 16,6 C 86 % 1016,1 hPa 0,0 l/m 0,0 km/h (0 Bft) NO 43 0 min 0,000 mm 0,0 UV-I 9 W/m 14,2 C 16,6 C 0,0 km/h (0 Bft) 0,00 %
17.07.2015 05:45 16,6 C 85 % 1015,9 hPa 0,0 l/m 0,0 km/h (0 Bft) NO 47 5 min 0,000 mm 0,0 UV-I 26 W/m 14,1 C 16,6 C 0,0 km/h (0 Bft) 0,00 %
17.07.2015 05:50 16,6 C 85 % 1015,9 hPa 0,0 l/m 0,0 km/h (0 Bft) NO 55 5 min 0,000 mm 0,0 UV-I 34 W/m 14,1 C 16,6 C 0,0 km/h (0 Bft) 0,00 %
17.07.2015 05:55 16,6 C 85 % 1015,6 hPa 0,0 l/m 0,0 km/h (0 Bft) NO 44 5 min 0,000 mm 0,0 UV-I 46 W/m 14,1 C 16,6 C 0,0 km/h (0 Bft) 0,00 %
17.07.2015 06:00 16,8 C 85 % 1015,9 hPa 0,0 l/m 0,0 km/h (0 Bft) NO 44 5 min 0,000 mm 0,0 UV-I 54 W/m 14,3 C 16,8 C 0,0 km/h (0 Bft) 0,00 %
17.07.2015 06:05 17,0 C 85 % 1015,6 hPa 0,0 l/m 0,0 km/h (0 Bft) NO 44 5 min 0,000 mm 0,0 UV-I 82 W/m 14,5 C 17,0 C 0,0 km/h (0 Bft) 0,00 %
17.07.2015 06:10 17,3 C 84 % 1015,5 hPa 0,0 l/m 0,0 km/h (0 Bft) NO 40 5 min 0,000 mm 0,0 UV-I 96 W/m 14,6 C 17,3 C 0,0 km/h (0 Bft) 0,00 %
17.07.2015 06:15 17,8 C 82 % 1015,3 hPa 0,0 l/m 0,0 km/h (0 Bft) NO 48 5 min 0,000 mm 0,0 UV-I 109 W/m 14,7 C 17,8 C 0,0 km/h (0 Bft) 0,00 %
17.07.2015 06:20 18,3 C 79 % 1015,5 hPa 0,0 l/m 0,0 km/h (0 Bft) NO 44 5 min 0,000 mm 0,0 UV-I 132 W/m 14,6 C 18,3 C 0,0 km/h (0 Bft) 0,00 %
17.07.2015 06:25 18,8 C 77 % 1015,3 hPa 0,0 l/m 0,0 km/h (0 Bft) NO 46 5 min 0,000 mm 0,0 UV-I 150 W/m 14,7 C 18,8 C 0,0 km/h (0 Bft) 0,00 %
17.07.2015 06:30 19,3 C 73 % 1015,2 hPa 0,0 l/m 0,0 km/h (0 Bft) NO 48 5 min 0,000 mm 0,0 UV-I 172 W/m 14,3 C 19,3 C 0,0 km/h (0 Bft) 0,00 %
17.07.2015 06:35 20,0 C 71 % 1015,0 hPa 0,0 l/m 0,0 km/h (0 Bft) NO 47 5 min 0,000 mm 1,0 UV-I 194 W/m 14,6 C 20,0 C 0,0 km/h (0 Bft) 0,00 %
17.07.2015 06:40 20,7 C 69 % 1015,2 hPa 0,0 l/m 0,0 km/h (0 Bft) NO 44 5 min 0,000 mm 1,0 UV-I 123 W/m 14,8 C 20,7 C 0,0 km/h (0 Bft) 0,00 %
17.07.2015 06:45 21,1 C 67 % 1015,3 hPa 0,0 l/m 0,0 km/h (0 Bft) N-NO 18 5 min 0,000 mm 1,0 UV-I 220 W/m 14,7 C 21,1 C 0,0 km/h (0 Bft) 0,00 %
17.07.2015 06:50 21,4 C 66 % 1015,0 hPa 0,0 l/m 0,0 km/h (0 Bft) NO 41 5 min 0,000 mm 1,0 UV-I 236 W/m 14,8 C 21,4 C 0,0 km/h (0 Bft) 0,00 %
17.07.2015 06:55 21,6 C 65 % 1015,0 hPa 0,0 l/m 0,0 km/h (0 Bft) NO 43 5 min 0,000 mm 1,0 UV-I 267 W/m 14,7 C 21,6 C 0,0 km/h (0 Bft) 0,00 %
17.07.2015 07:00 21,9 C 64 % 1014,6 hPa 0,0 l/m 0,0 km/h (0 Bft) NO 51 5 min 0,000 mm 1,0 UV-I 305 W/m 14,8 C 21,9 C 0,0 km/h (0 Bft) 0,00 %
17.07.2015 07:05 22,4 C 65 % 1014,8 hPa 0,0 l/m 0,0 km/h (0 Bft) NO 44 5 min 0,000 mm 1,0 UV-I 312 W/m 15,5 C 22,4 C 0,0 km/h (0 Bft) 0,00 %
17.07.2015 07:10 22,9 C 63 % 1014,5 hPa 0,0 l/m 0,0 km/h (0 Bft) NO 35 5 min 0,000 mm 1,0 UV-I 317 W/m 15,5 C 22,9 C 0,0 km/h (0 Bft) 0,00 %
17.07.2015 07:15 23,5 C 61 % 1014,4 hPa 0,0 l/m 0,0 km/h (0 Bft) NO 44 5 min 0,000 mm 1,0 UV-I 321 W/m 15,5 C 23,5 C 0,0 km/h (0 Bft) 0,00 %
17.07.2015 07:20 24,0 C 58 % 1014,4 hPa 0,0 l/m 0,0 km/h (0 Bft) NO 42 5 min 0,000 mm 1,0 UV-I 354 W/m 15,2 C 24,0 C 0,0 km/h (0 Bft) 0,00 %
17.07.2015 07:25 24,5 C 56 % 1014,2 hPa 0,0 l/m 0,0 km/h (0 Bft) N-NO 32 5 min 0,000 mm 1,0 UV-I 194 W/m 15,1 C 24,5 C 0,0 km/h (0 Bft) 0,00 %
17.07.2015 07:30 25,0 C 53 % 1014,3 hPa 0,0 l/m 0,0 km/h (0 Bft) NO 54 5 min 0,000 mm 1,0 UV-I 377 W/m 14,7 C 25,0 C 0,0 km/h (0 Bft) 0,00 %
17.07.2015 07:35 25,3 C 54 % 1014,2 hPa 0,0 l/m 0,0 km/h (0 Bft) O-NO 57 5 min 0,000 mm 1,0 UV-I 294 W/m 15,3 C 25,3 C 0,0 km/h (0 Bft) 0,00 %
17.07.2015 07:40 25,3 C 53 % 1014,1 hPa 0,0 l/m 0,0 km/h (0 Bft) O-NO 64 0 min 0,000 mm 1,0 UV-I 185 W/m 15,0 C 25,3 C 0,0 km/h (0 Bft) 0,00 %
17.07.2015 07:45 25,5 C 54 % 1014,1 hPa 0,0 l/m 0,0 km/h (0 Bft) N-NO 26 5 min 0,000 mm 1,0 UV-I 388 W/m 15,5 C 25,5 C 0,0 km/h (0 Bft) 0,00 %
17.07.2015 07:50 25,8 C 51 % 1014,0 hPa 0,0 l/m 0,0 km/h (0 Bft) NO 46 5 min 0,000 mm 1,0 UV-I 401 W/m 14,9 C 25,8 C 0,0 km/h (0 Bft) 0,00 %
17.07.2015 07:55 25,9 C 51 % 1014,0 hPa 0,0 l/m 0,0 km/h (0 Bft) NO 44 5 min 0,000 mm 1,0 UV-I 407 W/m 15,0 C 25,9 C 0,0 km/h (0 Bft) 0,00 %
17.07.2015 08:00 25,9 C 51 % 1013,9 hPa 0,0 l/m 0,0 km/h (0 Bft) N-NO 33 5 min 0,000 mm 1,0 UV-I 353 W/m 15,0 C 25,9 C 0,0 km/h (0 Bft) 0,00 %
17.07.2015 08:05 26,0 C 51 % 1014,2 hPa 0,0 l/m 0,0 km/h (0 Bft) NO 45 5 min 0,000 mm 1,0 UV-I 427 W/m 15,1 C 26,0 C 0,0 km/h (0 Bft) 0,00 %
17.07.2015 08:10 26,1 C 50 % 1014,1 hPa 0,0 l/m 0,0 km/h (0 Bft) O-NO 64 5 min 0,000 mm 1,0 UV-I 454 W/m 14,8 C 26,1 C 0,0 km/h (0 Bft) 0,00 %
17.07.2015 08:15 26,4 C 49 % 1014,3 hPa 0,0 l/m 0,0 km/h (0 Bft) NO 40 5 min 0,000 mm 1,0 UV-I 406 W/m 14,8 C 26,4 C 0,0 km/h (0 Bft) 0,00 %
17.07.2015 08:20 26,8 C 48 % 1013,9 hPa 0,0 l/m 0,0 km/h (0 Bft) N-NO 27 0 min 0,000 mm 1,0 UV-I 245 W/m 14,9 C 26,8 C 0,0 km/h (0 Bft) 0,00 %
17.07.2015 08:25 27,2 C 47 % 1013,9 hPa 0,0 l/m 0,0 km/h (0 Bft) NO 56 5 min 0,000 mm 1,0 UV-I 480 W/m 14,9 C 27,2 C 0,0 km/h (0 Bft) 0,00 %
17.07.2015 08:30 27,2 C 48 % 1014,1 hPa 0,0 l/m 0,0 km/h (0 Bft) NO 49 5 min 0,000 mm 1,0 UV-I 359 W/m 15,2 C 27,2 C 0,0 km/h (0 Bft) 0,00 %
17.07.2015 08:35 27,0 C 49 % 1014,8 hPa 0,0 l/m 0,0 km/h (0 Bft) O-NO 68 5 min 0,000 mm 2,0 UV-I 466 W/m 15,4 C 27,0 C 0,0 km/h (0 Bft) 0,00 %
17.07.2015 08:40 26,8 C 47 % 1014,9 hPa 0,0 l/m 0,0 km/h (0 Bft) O-NO 75 5 min 0,000 mm 1,0 UV-I 466 W/m 14,5 C 26,8 C 0,0 km/h (0 Bft) 0,00 %
17.07.2015 08:45 26,6 C 49 % 1015,0 hPa 0,0 l/m 0,0 km/h (0 Bft) NO 50 5 min 0,000 mm 2,0 UV-I 482 W/m 15,0 C 26,6 C 0,0 km/h (0 Bft) 0,00 %
17.07.2015 08:50 26,5 C 48 % 1014,8 hPa 0,0 l/m 1,8 km/h (1 Bft) NO 56 5 min 0,000 mm 2,0 UV-I 457 W/m 14,6 C 26,5 C 4,0 km/h (1 Bft) 0,00 %
17.07.2015 08:55 26,8 C 45 % 1014,7 hPa 0,0 l/m 1,4 km/h (1 Bft) O 91 5 min 0,000 mm 2,0 UV-I 490 W/m 13,9 C 26,8 C 4,0 km/h (1 Bft) 0,00 %
17.07.2015 09:00 27,3 C 45 % 1014,7 hPa 0,0 l/m 2,9 km/h (1 Bft) O-SO 104 5 min 0,000 mm 2,0 UV-I 508 W/m 14,3 C 27,3 C 4,0 km/h (1 Bft) 0,00 %
17.07.2015 09:05 27,8 C 44 % 1014,7 hPa 0,0 l/m 0,0 km/h (0 Bft) N-NO 31 5 min 0,000 mm 2,0 UV-I 519 W/m 14,4 C 27,8 C 0,0 km/h (0 Bft) 0,00 %
17.07.2015 09:10 28,2 C 44 % 1014,4 hPa 0,0 l/m 1,8 km/h (1 Bft) O 89 5 min 0,000 mm 2,0 UV-I 533 W/m 14,8 C 28,2 C 4,0 km/h (1 Bft) 0,00 %
17.07.2015 09:15 28,5 C 43 % 1014,6 hPa 0,0 l/m 0,0 km/h (0 Bft) O-NO 77 5 min 0,000 mm 2,0 UV-I 546 W/m 14,7 C 28,5 C 0,0 km/h (0 Bft) 0,00 %
17.07.2015 09:20 28,6 C 43 % 1014,5 hPa 0,0 l/m 0,0 km/h (0 Bft) NO 38 5 min 0,000 mm 2,0 UV-I 559 W/m 14,8 C 28,6 C 0,0 km/h (0 Bft) 0,00 %
17.07.2015 09:25 28,7 C 41 % 1014,6 hPa 0,0 l/m 0,0 km/h (0 Bft) O 97 5 min 0,000 mm 2,0 UV-I 570 W/m 14,1 C 28,7 C 0,0 km/h (0 Bft) 0,00 %
17.07.2015 09:30 29,2 C 41 % 1014,5 hPa 0,0 l/m 0,0 km/h (0 Bft) NO 47 5 min 0,000 mm 2,0 UV-I 580 W/m 14,6 C 29,2 C 0,0 km/h (0 Bft) 0,00 %
17.07.2015 09:35 29,5 C 42 % 1014,4 hPa 0,0 l/m 0,0 km/h (0 Bft) NO 36 5 min 0,000 mm 2,0 UV-I 586 W/m 15,2 C 29,5 C 0,0 km/h (0 Bft) 0,00 %
17.07.2015 09:40 29,9 C 40 % 1014,3 hPa 0,0 l/m 1,8 km/h (1 Bft) SO 129 5 min 0,000 mm 2,0 UV-I 605 W/m 14,8 C 29,9 C 4,0 km/h (1 Bft) 0,00 %
17.07.2015 09:45 30,0 C 40 % 1014,3 hPa 0,0 l/m 0,0 km/h (0 Bft) NO 54 5 min 0,000 mm 2,0 UV-I 617 W/m 14,9 C 30,0 C 0,0 km/h (0 Bft) 0,00 %
17.07.2015 09:50 30,0 C 40 % 1014,4 hPa 0,0 l/m 0,0 km/h (0 Bft) N-NO 15 5 min 0,000 mm 2,0 UV-I 625 W/m 14,9 C 30,0 C 0,0 km/h (0 Bft) 0,00 %
17.07.2015 09:55 30,1 C 40 % 1014,4 hPa 0,0 l/m 0,0 km/h (0 Bft) NO 36 5 min 0,000 mm 3,0 UV-I 637 W/m 15,0 C 30,1 C 0,0 km/h (0 Bft) 0,00 %
17.07.2015 10:00 30,4 C 41 % 1014,1 hPa 0,0 l/m 2,2 km/h (1 Bft) O 81 5 min 0,000 mm 3,0 UV-I 654 W/m 15,6 C 30,4 C 4,0 km/h (1 Bft) 0,00 %
17.07.2015 10:05 30,4 C 40 % 1014,1 hPa 0,0 l/m 5,4 km/h (1 Bft) O-SO 105 5 min 0,000 mm 3,0 UV-I 665 W/m 15,3 C 30,4 C 11,9 km/h (2 Bft) 0,00 %
17.07.2015 10:10 30,3 C 43 % 1014,4 hPa 0,0 l/m 0,0 km/h (0 Bft) O-NO 69 5 min 0,000 mm 3,0 UV-I 676 W/m 16,3 C 30,3 C 0,0 km/h (0 Bft) 0,00 %
17.07.2015 10:15 30,5 C 40 % 1014,2 hPa 0,0 l/m 0,0 km/h (0 Bft) N-NO 31 5 min 0,000 mm 3,0 UV-I 689 W/m 15,3 C 30,5 C 0,0 km/h (0 Bft) 0,00 %
17.07.2015 10:20 30,6 C 41 % 1014,3 hPa 0,0 l/m 2,9 km/h (1 Bft) SO 132 5 min 0,000 mm 3,0 UV-I 706 W/m 15,8 C 30,6 C 4,0 km/h (1 Bft) 0,00 %
17.07.2015 10:25 30,8 C 39 % 1014,1 hPa 0,0 l/m 0,0 km/h (0 Bft) N-NO 26 5 min 0,000 mm 3,0 UV-I 716 W/m 15,2 C 30,8 C 0,0 km/h (0 Bft) 0,00 %
17.07.2015 10:30 31,0 C 40 % 1014,1 hPa 0,0 l/m 0,0 km/h (0 Bft) NO 51 5 min 0,000 mm 3,0 UV-I 724 W/m 15,8 C 31,0 C 0,0 km/h (0 Bft) 0,00 %
17.07.2015 10:35 31,1 C 39 % 1013,9 hPa 0,0 l/m 1,8 km/h (1 Bft) O 83 5 min 0,000 mm 3,0 UV-I 734 W/m 15,5 C 31,1 C 4,0 km/h (1 Bft) 0,00 %
17.07.2015 10:40 31,4 C 41 % 1014,2 hPa 0,0 l/m 0,0 km/h (0 Bft) NO 46 5 min 0,000 mm 3,0 UV-I 744 W/m 16,5 C 31,4 C 0,0 km/h (0 Bft) 0,00 %
17.07.2015 10:45 31,8 C 40 % 1014,3 hPa 0,0 l/m 0,4 km/h (0 Bft) N 352 5 min 0,000 mm 3,0 UV-I 756 W/m 16,5 C 31,8 C 4,0 km/h (1 Bft) 0,00 %
17.07.2015 10:50 31,7 C 39 % 1014,1 hPa 0,0 l/m 0,0 km/h (0 Bft) O 96 5 min 0,000 mm 4,0 UV-I 761 W/m 16,0 C 31,7 C 0,0 km/h (0 Bft) 0,00 %
17.07.2015 10:55 31,9 C 42 % 1014,0 hPa 0,0 l/m 2,2 km/h (1 Bft) O-SO 104 5 min 0,000 mm 4,0 UV-I 764 W/m 17,4 C 31,9 C 4,0 km/h (1 Bft) 0,00 %
17.07.2015 11:00 32,4 C 37 % 1013,8 hPa 0,0 l/m 0,4 km/h (0 Bft) O 95 5 min 0,000 mm 4,0 UV-I 777 W/m 15,8 C 32,4 C 4,0 km/h (1 Bft) 0,00 %
17.07.2015 11:05 32,3 C 38 % 1013,8 hPa 0,0 l/m 3,2 km/h (1 Bft) SO 146 5 min 0,000 mm 4,0 UV-I 786 W/m 16,1 C 32,3 C 4,0 km/h (1 Bft) 0,00 %
17.07.2015 11:10 32,0 C 39 % 1013,9 hPa 0,0 l/m 0,0 km/h (0 Bft) NO 36 5 min 0,000 mm 4,0 UV-I 792 W/m 16,3 C 32,0 C 0,0 km/h (0 Bft) 0,00 %
17.07.2015 11:15 32,2 C 39 % 1014,0 hPa 0,0 l/m 0,0 km/h (0 Bft) NO 36 5 min 0,000 mm 4,0 UV-I 797 W/m 16,5 C 32,2 C 0,0 km/h (0 Bft) 0,00 %
17.07.2015 11:20 32,7 C 36 % 1013,8 hPa 0,0 l/m 0,4 km/h (0 Bft) O-NO 75 5 min 0,000 mm 4,0 UV-I 801 W/m 15,6 C 32,7 C 4,0 km/h (1 Bft) 0,00 %
17.07.2015 11:25 32,9 C 35 % 1013,7 hPa 0,0 l/m 1,4 km/h (1 Bft) S 170 5 min 0,000 mm 4,0 UV-I 796 W/m 15,4 C 32,9 C 4,0 km/h (1 Bft) 0,00 %
17.07.2015 11:30 32,7 C 36 % 1013,9 hPa 0,0 l/m 0,0 km/h (0 Bft) NO 40 5 min 0,000 mm 4,0 UV-I 810 W/m 15,6 C 32,7 C 0,0 km/h (0 Bft) 0,00 %
17.07.2015 11:35 32,6 C 36 % 1014,0 hPa 0,0 l/m 5,8 km/h (2 Bft) O-SO 112 5 min 0,000 mm 5,0 UV-I 812 W/m 15,6 C 32,6 C 7,9 km/h (2 Bft) 0,00 %
17.07.2015 11:40 32,7 C 33 % 1013,9 hPa 0,0 l/m 0,4 km/h (0 Bft) O-NO 59 5 min 0,000 mm 5,0 UV-I 818 W/m 14,3 C 32,7 C 4,0 km/h (1 Bft) 0,00 %
17.07.2015 11:45 32,7 C 33 % 1013,7 hPa 0,0 l/m 1,8 km/h (1 Bft) O 81 5 min 0,000 mm 5,0 UV-I 828 W/m 14,3 C 32,7 C 4,0 km/h (1 Bft) 0,00 %
17.07.2015 11:50 32,8 C 32 % 1013,9 hPa 0,0 l/m 0,4 km/h (0 Bft) NO 46 5 min 0,000 mm 5,0 UV-I 835 W/m 13,9 C 32,8 C 4,0 km/h (1 Bft) 0,00 %
17.07.2015 11:55 32,9 C 33 % 1013,7 hPa 0,0 l/m 0,7 km/h (0 Bft) O-SO 110 5 min 0,000 mm 5,0 UV-I 836 W/m 14,5 C 32,9 C 4,0 km/h (1 Bft) 0,00 %
17.07.2015 12:00 32,8 C 33 % 1013,9 hPa 0,0 l/m 0,0 km/h (0 Bft) N-NO 29 5 min 0,000 mm 5,0 UV-I 840 W/m 14,4 C 32,8 C 0,0 km/h (0 Bft) 0,00 %
17.07.2015 12:05 32,8 C 32 % 1014,0 hPa 0,0 l/m 6,5 km/h (2 Bft) O-SO 106 5 min 0,000 mm 5,0 UV-I 840 W/m 13,9 C 32,8 C 7,9 km/h (2 Bft) 0,00 %
17.07.2015 12:10 32,8 C 30 % 1013,8 hPa 0,0 l/m 2,2 km/h (1 Bft) S-SW 198 5 min 0,000 mm 5,0 UV-I 845 W/m 12,9 C 32,8 C 4,0 km/h (1 Bft) 0,00 %
17.07.2015 12:15 32,8 C 29 % 1013,9 hPa 0,0 l/m 1,4 km/h (1 Bft) O-NO 65 5 min 0,000 mm 5,0 UV-I 851 W/m 12,4 C 32,8 C 4,0 km/h (1 Bft) 0,00 %
17.07.2015 12:20 32,8 C 31 % 1013,7 hPa 0,0 l/m 7,9 km/h (2 Bft) O 79 5 min 0,000 mm 5,0 UV-I 851 W/m 13,4 C 32,8 C 11,9 km/h (2 Bft) 0,00 %
17.07.2015 12:25 32,7 C 30 % 1013,8 hPa 0,0 l/m 6,5 km/h (2 Bft) O 94 5 min 0,000 mm 5,0 UV-I 862 W/m 12,8 C 32,7 C 11,9 km/h (2 Bft) 0,00 %
17.07.2015 12:30 32,7 C 32 % 1013,8 hPa 0,0 l/m 2,2 km/h (1 Bft) O-NO 64 5 min 0,000 mm 5,0 UV-I 866 W/m 13,8 C 32,7 C 4,0 km/h (1 Bft) 0,00 %
17.07.2015 12:35 32,9 C 27 % 1013,8 hPa 0,0 l/m 2,2 km/h (1 Bft) O-NO 74 5 min 0,000 mm 5,0 UV-I 874 W/m 11,4 C 32,9 C 4,0 km/h (1 Bft) 0,00 %
17.07.2015 12:40 33,0 C 31 % 1013,8 hPa 0,0 l/m 0,0 km/h (0 Bft) NO 53 5 min 0,000 mm 5,0 UV-I 888 W/m 13,6 C 33,0 C 0,0 km/h (0 Bft) 0,00 %
17.07.2015 12:45 33,1 C 27 % 1013,8 hPa 0,0 l/m 0,0 km/h (0 Bft) NO 40 5 min 0,000 mm 5,0 UV-I 892 W/m 11,6 C 33,1 C 0,0 km/h (0 Bft) 0,00 %
17.07.2015 12:50 33,2 C 29 % 1013,5 hPa 0,0 l/m 0,0 km/h (0 Bft) O-NO 75 5 min 0,000 mm 5,0 UV-I 887 W/m 12,7 C 33,2 C 0,0 km/h (0 Bft) 0,00 %
17.07.2015 12:55 33,1 C 26 % 1013,6 hPa 0,0 l/m 0,0 km/h (0 Bft) N-NO 29 5 min 0,000 mm 5,0 UV-I 885 W/m 11,0 C 33,1 C 0,0 km/h (0 Bft) 0,00 %
17.07.2015 13:00 33,0 C 30 % 1013,6 hPa 0,0 l/m 2,9 km/h (1 Bft) NO 56 5 min 0,000 mm 5,0 UV-I 896 W/m 13,1 C 33,0 C 4,0 km/h (1 Bft) 0,00 %
17.07.2015 13:05 33,3 C 28 % 1013,6 hPa 0,0 l/m 6,5 km/h (2 Bft) O-SO 111 5 min 0,000 mm 5,0 UV-I 895 W/m 12,3 C 33,3 C 7,9 km/h (2 Bft) 0,00 %
17.07.2015 13:10 33,5 C 25 % 1013,5 hPa 0,0 l/m 2,2 km/h (1 Bft) W-NW 295 5 min 0,000 mm 5,0 UV-I 895 W/m 10,7 C 33,5 C 4,0 km/h (1 Bft) 0,00 %
17.07.2015 13:15 33,5 C 26 % 1013,5 hPa 0,0 l/m 0,0 km/h (0 Bft) O-NO 60 5 min 0,000 mm 5,0 UV-I 905 W/m 11,3 C 33,5 C 0,0 km/h (0 Bft) 0,00 %
17.07.2015 13:20 33,5 C 28 % 1013,5 hPa 0,0 l/m 0,4 km/h (0 Bft) N 3 5 min 0,000 mm 5,0 UV-I 920 W/m 12,5 C 33,5 C 4,0 km/h (1 Bft) 0,00 %
17.07.2015 13:25 33,6 C 31 % 1013,5 hPa 0,0 l/m 8,3 km/h (2 Bft) NW 307 5 min 0,000 mm 5,0 UV-I 927 W/m 14,1 C 33,6 C 11,9 km/h (2 Bft) 0,00 %
17.07.2015 13:30 33,6 C 29 % 1013,3 hPa 0,0 l/m 2,9 km/h (1 Bft) N-NW 337 5 min 0,000 mm 5,0 UV-I 927 W/m 13,1 C 33,6 C 4,0 km/h (1 Bft) 0,00 %
17.07.2015 13:35 33,6 C 25 % 1013,3 hPa 0,0 l/m 2,2 km/h (1 Bft) O 96 5 min 0,000 mm 5,0 UV-I 931 W/m 10,8 C 33,6 C 4,0 km/h (1 Bft) 0,00 %
17.07.2015 13:40 33,7 C 26 % 1013,2 hPa 0,0 l/m 1,8 km/h (1 Bft) N-NW 345 5 min 0,000 mm 5,0 UV-I 931 W/m 11,5 C 33,7 C 4,0 km/h (1 Bft) 0,00 %
17.07.2015 13:45 33,7 C 26 % 1013,3 hPa 0,0 l/m 2,9 km/h (1 Bft) N-NO 30 5 min 0,000 mm 5,0 UV-I 931 W/m 11,5 C 33,7 C 4,0 km/h (1 Bft) 0,00 %
17.07.2015 13:50 33,8 C 27 % 1013,2 hPa 0,0 l/m 0,4 km/h (0 Bft) NO 53 5 min 0,000 mm 5,0 UV-I 937 W/m 12,2 C 33,8 C 4,0 km/h (1 Bft) 0,00 %
17.07.2015 13:55 33,9 C 26 % 1013,2 hPa 0,0 l/m 4,0 km/h (1 Bft) O-SO 110 5 min 0,000 mm 5,0 UV-I 942 W/m 11,7 C 33,9 C 7,9 km/h (2 Bft) 0,00 %
17.07.2015 14:00 33,7 C 26 % 1013,1 hPa 0,0 l/m 2,9 km/h (1 Bft) NO 54 5 min 0,000 mm 5,0 UV-I 942 W/m 11,5 C 33,7 C 4,0 km/h (1 Bft) 0,00 %
17.07.2015 14:05 33,8 C 24 % 1013,3 hPa 0,0 l/m 0,0 km/h (0 Bft) W-NW 289 5 min 0,000 mm 5,0 UV-I 930 W/m 10,4 C 33,8 C 0,0 km/h (0 Bft) 0,00 %
17.07.2015 14:10 33,9 C 23 % 1013,0 hPa 0,0 l/m 0,4 km/h (0 Bft) O 83 5 min 0,000 mm 5,0 UV-I 938 W/m 9,8 C 33,9 C 4,0 km/h (1 Bft) 0,00 %
17.07.2015 14:15 34,1 C 23 % 1013,1 hPa 0,0 l/m 0,7 km/h (0 Bft) O-NO 72 5 min 0,000 mm 4,0 UV-I 947 W/m 10,0 C 34,1 C 4,0 km/h (1 Bft) 0,00 %
17.07.2015 14:20 34,3 C 26 % 1012,9 hPa 0,0 l/m 0,4 km/h (0 Bft) N-NO 24 5 min 0,000 mm 4,0 UV-I 949 W/m 12,0 C 34,3 C 4,0 km/h (1 Bft) 0,00 %
17.07.2015 14:25 34,5 C 24 % 1013,0 hPa 0,0 l/m 5,8 km/h (2 Bft) O-SO 113 5 min 0,000 mm 4,0 UV-I 946 W/m 11,0 C 34,5 C 7,9 km/h (2 Bft) 0,00 %
17.07.2015 14:30 34,6 C 25 % 1013,0 hPa 0,0 l/m 0,0 km/h (0 Bft) O-NO 78 5 min 0,000 mm 4,0 UV-I 945 W/m 11,7 C 34,6 C 0,0 km/h (0 Bft) 0,00 %
17.07.2015 14:35 34,7 C 27 % 1012,9 hPa 0,0 l/m 0,0 km/h (0 Bft) N-NO 12 5 min 0,000 mm 4,0 UV-I 938 W/m 12,9 C 34,7 C 0,0 km/h (0 Bft) 0,00 %
17.07.2015 14:40 34,9 C 29 % 1012,7 hPa 0,0 l/m 0,0 km/h (0 Bft) N-NO 29 5 min 0,000 mm 4,0 UV-I 949 W/m 14,2 C 34,9 C 0,0 km/h (0 Bft) 0,00 %
17.07.2015 14:45 34,8 C 25 % 1012,8 hPa 0,0 l/m 0,4 km/h (0 Bft) O 96 5 min 0,000 mm 4,0 UV-I 945 W/m 11,8 C 34,8 C 4,0 km/h (1 Bft) 0,00 %
17.07.2015 14:50 34,5 C 27 % 1012,8 hPa 0,0 l/m 0,0 km/h (0 Bft) N-NO 15 5 min 0,000 mm 4,0 UV-I 948 W/m 12,7 C 34,5 C 0,0 km/h (0 Bft) 0,00 %
17.07.2015 14:55 34,2 C 30 % 1012,7 hPa 0,0 l/m 0,0 km/h (0 Bft) NO 36 5 min 0,000 mm 4,0 UV-I 950 W/m 14,1 C 34,2 C 0,0 km/h (0 Bft) 0,00 %
17.07.2015 15:00 34,2 C 26 % 1012,9 hPa 0,0 l/m 0,0 km/h (0 Bft) O-NO 60 5 min 0,000 mm 4,0 UV-I 953 W/m 11,9 C 34,2 C 0,0 km/h (0 Bft) 0,00 %
17.07.2015 15:05 34,6 C 22 % 1012,7 hPa 0,0 l/m 0,0 km/h (0 Bft) NO 53 5 min 0,000 mm 4,0 UV-I 949 W/m 9,7 C 34,6 C 0,0 km/h (0 Bft) 0,00 %
17.07.2015 15:10 35,0 C 26 % 1012,6 hPa 0,0 l/m 4,3 km/h (1 Bft) NW 319 5 min 0,000 mm 4,0 UV-I 952 W/m 12,6 C 35,0 C 7,9 km/h (2 Bft) 0,00 %
17.07.2015 15:15 35,4 C 23 % 1012,6 hPa 0,0 l/m 4,0 km/h (1 Bft) N-NW 329 5 min 0,000 mm 4,0 UV-I 949 W/m 11,1 C 35,4 C 7,9 km/h (2 Bft) 0,00 %
17.07.2015 15:20 35,5 C 22 % 1012,5 hPa 0,0 l/m 1,8 km/h (1 Bft) N-NW 337 5 min 0,000 mm 4,0 UV-I 944 W/m 10,5 C 35,5 C 4,0 km/h (1 Bft) 0,00 %
17.07.2015 15:25 35,5 C 22 % 1012,3 hPa 0,0 l/m 0,0 km/h (0 Bft) NO 38 5 min 0,000 mm 4,0 UV-I 934 W/m 10,5 C 35,5 C 0,0 km/h (0 Bft) 0,00 %
17.07.2015 15:30 35,5 C 22 % 1012,3 hPa 0,0 l/m 4,0 km/h (1 Bft) NO 55 5 min 0,000 mm 4,0 UV-I 925 W/m 10,5 C 35,5 C 7,9 km/h (2 Bft) 0,00 %
17.07.2015 15:35 35,5 C 23 % 1012,2 hPa 0,0 l/m 0,0 km/h (0 Bft) NO 42 5 min 0,000 mm 4,0 UV-I 922 W/m 11,1 C 35,5 C 0,0 km/h (0 Bft) 0,00 %
17.07.2015 15:40 35,4 C 26 % 1012,2 hPa 0,0 l/m 0,0 km/h (0 Bft) N 10 5 min 0,000 mm 3,0 UV-I 925 W/m 12,9 C 35,4 C 0,0 km/h (0 Bft) 0,00 %
17.07.2015 15:45 35,4 C 23 % 1012,1 hPa 0,0 l/m 0,4 km/h (0 Bft) O-NO 72 5 min 0,000 mm 3,0 UV-I 916 W/m 11,1 C 35,4 C 4,0 km/h (1 Bft) 0,00 %
17.07.2015 15:50 35,4 C 22 % 1012,1 hPa 0,0 l/m 5,8 km/h (2 Bft) W-NW 295 5 min 0,000 mm 3,0 UV-I 903 W/m 10,4 C 35,4 C 7,9 km/h (2 Bft) 0,00 %
17.07.2015 15:55 35,3 C 23 % 1011,8 hPa 0,0 l/m 0,0 km/h (0 Bft) NO 52 5 min 0,000 mm 3,0 UV-I 899 W/m 11,0 C 35,3 C 0,0 km/h (0 Bft) 0,00 %
17.07.2015 16:00 35,1 C 21 % 1011,7 hPa 0,0 l/m 0,4 km/h (0 Bft) O 82 5 min 0,000 mm 3,0 UV-I 895 W/m 9,5 C 35,1 C 4,0 km/h (1 Bft) 0,00 %
17.07.2015 16:05 35,0 C 22 % 1011,6 hPa 0,0 l/m 1,8 km/h (1 Bft) NW 314 5 min 0,000 mm 3,0 UV-I 893 W/m 10,1 C 35,0 C 4,0 km/h (1 Bft) 0,00 %
17.07.2015 16:10 35,0 C 24 % 1011,7 hPa 0,0 l/m 0,0 km/h (0 Bft) NO 54 5 min 0,000 mm 3,0 UV-I 894 W/m 11,4 C 35,0 C 0,0 km/h (0 Bft) 0,00 %
17.07.2015 16:15 35,0 C 24 % 1011,7 hPa 0,0 l/m 0,7 km/h (0 Bft) N-NW 347 5 min 0,000 mm 3,0 UV-I 900 W/m 11,4 C 35,0 C 4,0 km/h (1 Bft) 0,00 %
17.07.2015 16:20 35,0 C 22 % 1011,8 hPa 0,0 l/m 0,4 km/h (0 Bft) N-NO 24 5 min 0,000 mm 3,0 UV-I 891 W/m 10,1 C 35,0 C 4,0 km/h (1 Bft) 0,00 %
17.07.2015 16:25 35,1 C 21 % 1011,7 hPa 0,0 l/m 0,0 km/h (0 Bft) N-NO 30 5 min 0,000 mm 3,0 UV-I 873 W/m 9,5 C 35,1 C 0,0 km/h (0 Bft) 0,00 %
17.07.2015 16:30 35,1 C 21 % 1011,6 hPa 0,0 l/m 0,0 km/h (0 Bft) NO 43 5 min 0,000 mm 3,0 UV-I 872 W/m 9,5 C 35,1 C 0,0 km/h (0 Bft) 0,00 %
17.07.2015 16:35 35,3 C 24 % 1011,8 hPa 0,0 l/m 0,0 km/h (0 Bft) NO 45 5 min 0,000 mm 3,0 UV-I 876 W/m 11,6 C 35,3 C 0,0 km/h (0 Bft) 0,00 %
17.07.2015 16:40 35,5 C 23 % 1011,4 hPa 0,0 l/m 0,0 km/h (0 Bft) NO 53 5 min 0,000 mm 2,0 UV-I 864 W/m 11,1 C 35,5 C 0,0 km/h (0 Bft) 0,00 %
17.07.2015 16:45 35,6 C 22 % 1011,6 hPa 0,0 l/m 1,8 km/h (1 Bft) NO 42 5 min 0,000 mm 2,0 UV-I 848 W/m 10,6 C 35,6 C 4,0 km/h (1 Bft) 0,00 %
17.07.2015 16:50 35,6 C 21 % 1011,3 hPa 0,0 l/m 0,0 km/h (0 Bft) NO 42 5 min 0,000 mm 2,0 UV-I 842 W/m 9,9 C 35,6 C 0,0 km/h (0 Bft) 0,00 %
17.07.2015 16:55 35,4 C 21 % 1011,3 hPa 0,0 l/m 0,0 km/h (0 Bft) N-NO 19 5 min 0,000 mm 2,0 UV-I 835 W/m 9,7 C 35,4 C 0,0 km/h (0 Bft) 0,00 %
17.07.2015 17:00 35,3 C 22 % 1011,3 hPa 0,0 l/m 0,0 km/h (0 Bft) NO 38 5 min 0,000 mm 2,0 UV-I 830 W/m 10,3 C 35,3 C 0,0 km/h (0 Bft) 0,00 %
17.07.2015 17:05 35,4 C 22 % 1011,1 hPa 0,0 l/m 0,0 km/h (0 Bft) O 84 5 min 0,000 mm 2,0 UV-I 831 W/m 10,4 C 35,4 C 0,0 km/h (0 Bft) 0,00 %
17.07.2015 17:10 35,4 C 20 % 1011,2 hPa 0,0 l/m 0,0 km/h (0 Bft) NO 43 5 min 0,000 mm 2,0 UV-I 811 W/m 9,0 C 35,4 C 0,0 km/h (0 Bft) 0,00 %
17.07.2015 17:15 35,2 C 20 % 1011,0 hPa 0,0 l/m 0,0 km/h (0 Bft) NO 40 5 min 0,000 mm 2,0 UV-I 793 W/m 8,8 C 35,2 C 0,0 km/h (0 Bft) 0,00 %
17.07.2015 17:20 35,1 C 24 % 1011,1 hPa 0,0 l/m 1,4 km/h (1 Bft) N-NW 329 5 min 0,000 mm 2,0 UV-I 782 W/m 11,5 C 35,1 C 4,0 km/h (1 Bft) 0,00 %
17.07.2015 17:25 35,2 C 21 % 1011,1 hPa 0,0 l/m 0,0 km/h (0 Bft) NO 42 5 min 0,000 mm 2,0 UV-I 751 W/m 9,5 C 35,2 C 0,0 km/h (0 Bft) 0,00 %
17.07.2015 17:30 35,4 C 22 % 1011,1 hPa 0,0 l/m 0,0 km/h (0 Bft) NO 47 5 min 0,000 mm 2,0 UV-I 735 W/m 10,4 C 35,4 C 0,0 km/h (0 Bft) 0,00 %
17.07.2015 17:35 35,5 C 23 % 1010,9 hPa 0,0 l/m 0,0 km/h (0 Bft) N-NO 33 5 min 0,000 mm 1,0 UV-I 687 W/m 11,1 C 35,5 C 0,0 km/h (0 Bft) 0,00 %
17.07.2015 17:40 35,3 C 25 % 1010,8 hPa 0,0 l/m 0,4 km/h (0 Bft) NO 55 5 min 0,000 mm 1,0 UV-I 676 W/m 12,2 C 35,3 C 4,0 km/h (1 Bft) 0,00 %
17.07.2015 17:45 34,9 C 26 % 1010,9 hPa 0,0 l/m 0,0 km/h (0 Bft) N-NW 343 5 min 0,000 mm 1,0 UV-I 496 W/m 12,5 C 34,9 C 0,0 km/h (0 Bft) 0,00 %
17.07.2015 17:50 34,7 C 25 % 1010,6 hPa 0,0 l/m 0,0 km/h (0 Bft) O-NO 72 5 min 0,000 mm 1,0 UV-I 483 W/m 11,7 C 34,7 C 0,0 km/h (0 Bft) 0,00 %
17.07.2015 17:55 34,6 C 26 % 1010,7 hPa 0,0 l/m 4,3 km/h (1 Bft) NO 53 5 min 0,000 mm 1,0 UV-I 487 W/m 12,3 C 34,6 C 7,9 km/h (2 Bft) 0,00 %
17.07.2015 18:00 34,5 C 25 % 1010,7 hPa 0,0 l/m 0,0 km/h (0 Bft) O 92 5 min 0,000 mm 1,0 UV-I 432 W/m 11,6 C 34,5 C 0,0 km/h (0 Bft) 0,00 %
17.07.2015 18:05 34,3 C 26 % 1010,8 hPa 0,0 l/m 0,0 km/h (0 Bft) NO 49 5 min 0,000 mm 1,0 UV-I 344 W/m 12,0 C 34,3 C 0,0 km/h (0 Bft) 0,00 %
17.07.2015 18:10 34,2 C 27 % 1010,8 hPa 0,0 l/m 0,4 km/h (0 Bft) SO 135 5 min 0,000 mm 1,0 UV-I 305 W/m 12,5 C 34,2 C 4,0 km/h (1 Bft) 0,00 %
17.07.2015 18:15 33,9 C 29 % 1010,8 hPa 0,0 l/m 0,0 km/h (0 Bft) O-NO 62 5 min 0,000 mm 1,0 UV-I 312 W/m 13,3 C 33,9 C 0,0 km/h (0 Bft) 0,00 %
17.07.2015 18:20 33,5 C 27 % 1010,9 hPa 0,0 l/m 0,7 km/h (0 Bft) N 354 5 min 0,000 mm 1,0 UV-I 279 W/m 11,9 C 33,5 C 4,0 km/h (1 Bft) 0,00 %
17.07.2015 18:25 33,1 C 29 % 1011,2 hPa 0,0 l/m 1,8 km/h (1 Bft) N 351 5 min 0,000 mm 1,0 UV-I 231 W/m 12,6 C 33,1 C 4,0 km/h (1 Bft) 0,00 %
17.07.2015 18:30 32,8 C 30 % 1011,0 hPa 0,0 l/m 0,0 km/h (0 Bft) NO 54 5 min 0,000 mm 1,0 UV-I 228 W/m 12,9 C 32,8 C 0,0 km/h (0 Bft) 0,00 %
17.07.2015 18:35 32,5 C 32 % 1011,1 hPa 0,0 l/m 0,0 km/h (0 Bft) NO 50 0 min 0,000 mm 1,0 UV-I 193 W/m 13,6 C 32,5 C 0,0 km/h (0 Bft) 0,00 %
17.07.2015 18:40 32,3 C 32 % 1011,1 hPa 0,0 l/m 0,0 km/h (0 Bft) O-NO 68 0 min 0,000 mm 1,0 UV-I 177 W/m 13,5 C 32,3 C 0,0 km/h (0 Bft) 0,00 %
17.07.2015 18:45 32,1 C 33 % 1011,3 hPa 0,0 l/m 0,0 km/h (0 Bft) NO 36 0 min 0,000 mm 1,0 UV-I 150 W/m 13,8 C 32,1 C 0,0 km/h (0 Bft) 0,00 %
17.07.2015 18:50 31,9 C 29 % 1011,3 hPa 0,0 l/m 0,0 km/h (0 Bft) O-NO 78 0 min 0,000 mm 1,0 UV-I 160 W/m 11,6 C 31,9 C 0,0 km/h (0 Bft) 0,00 %
17.07.2015 18:55 31,7 C 30 % 1011,2 hPa 0,0 l/m 0,0 km/h (0 Bft) N 355 0 min 0,000 mm 1,0 UV-I 167 W/m 12,0 C 31,7 C 0,0 km/h (0 Bft) 0,00 %
17.07.2015 19:00 31,4 C 32 % 1011,4 hPa 0,0 l/m 0,0 km/h (0 Bft) N-NO 30 0 min 0,000 mm 1,0 UV-I 153 W/m 12,7 C 31,4 C 0,0 km/h (0 Bft) 0,00 %
17.07.2015 19:05 31,1 C 31 % 1011,4 hPa 0,0 l/m 0,0 km/h (0 Bft) NO 36 0 min 0,000 mm 1,0 UV-I 151 W/m 11,9 C 31,1 C 0,0 km/h (0 Bft) 0,00 %
17.07.2015 19:10 30,9 C 31 % 1011,6 hPa 0,0 l/m 0,0 km/h (0 Bft) S-SW 210 0 min 0,000 mm 1,0 UV-I 140 W/m 11,8 C 30,9 C 0,0 km/h (0 Bft) 0,00 %
17.07.2015 19:15 30,8 C 31 % 1011,6 hPa 0,0 l/m 0,0 km/h (0 Bft) NO 37 0 min 0,000 mm 1,0 UV-I 109 W/m 11,7 C 30,8 C 0,0 km/h (0 Bft) 0,00 %
17.07.2015 19:20 30,6 C 32 % 1011,6 hPa 0,0 l/m 0,0 km/h (0 Bft) NO 44 0 min 0,000 mm 1,0 UV-I 82 W/m 12,0 C 30,6 C 0,0 km/h (0 Bft) 0,00 %
17.07.2015 19:25 30,4 C 32 % 1011,5 hPa 0,0 l/m 0,0 km/h (0 Bft) N-NO 28 0 min 0,000 mm 1,0 UV-I 64 W/m 11,8 C 30,4 C 0,0 km/h (0 Bft) 0,00 %
17.07.2015 19:30 30,4 C 33 % 1011,4 hPa 0,0 l/m 0,0 km/h (0 Bft) NO 42 0 min 0,000 mm 1,0 UV-I 52 W/m 12,3 C 30,4 C 0,0 km/h (0 Bft) 0,00 %
17.07.2015 19:35 30,3 C 34 % 1011,4 hPa 0,0 l/m 0,0 km/h (0 Bft) O-NO 66 0 min 0,000 mm 1,0 UV-I 43 W/m 12,7 C 30,3 C 0,0 km/h (0 Bft) 0,00 %
17.07.2015 19:40 30,3 C 39 % 1011,5 hPa 0,0 l/m 0,0 km/h (0 Bft) O-NO 71 0 min 0,000 mm 0,0 UV-I 31 W/m 14,8 C 30,3 C 0,0 km/h (0 Bft) 0,00 %
17.07.2015 19:45 30,1 C 41 % 1011,6 hPa 0,0 l/m 0,0 km/h (0 Bft) O-NO 59 0 min 0,000 mm 0,0 UV-I 28 W/m 15,4 C 30,1 C 0,0 km/h (0 Bft) 0,00 %
17.07.2015 19:50 29,9 C 38 % 1011,5 hPa 0,0 l/m 0,0 km/h (0 Bft) O-NO 60 0 min 0,000 mm 0,0 UV-I 25 W/m 14,0 C 29,9 C 0,0 km/h (0 Bft) 0,00 %
17.07.2015 19:55 29,5 C 41 % 1011,6 hPa 0,0 l/m 0,0 km/h (0 Bft) O-NO 72 0 min 0,000 mm 0,0 UV-I 21 W/m 14,8 C 29,5 C 0,0 km/h (0 Bft) 0,00 %
17.07.2015 20:00 29,2 C 42 % 1011,7 hPa 0,0 l/m 0,0 km/h (0 Bft) NO 54 0 min 0,000 mm 0,0 UV-I 17 W/m 14,9 C 29,2 C 0,0 km/h (0 Bft) 0,00 %
17.07.2015 20:05 28,7 C 41 % 1011,7 hPa 0,0 l/m 0,0 km/h (0 Bft) O 87 0 min 0,000 mm 0,0 UV-I 8 W/m 14,1 C 28,7 C 0,0 km/h (0 Bft) 0,00 %
17.07.2015 20:10 28,2 C 43 % 1011,8 hPa 0,0 l/m 0,0 km/h (0 Bft) O-SO 109 0 min 0,000 mm 0,0 UV-I 5 W/m 14,4 C 28,2 C 0,0 km/h (0 Bft) 0,00 %
17.07.2015 20:15 27,8 C 43 % 1012,0 hPa 0,0 l/m 0,0 km/h (0 Bft) O-SO 102 0 min 0,000 mm 0,0 UV-I 0 W/m 14,1 C 27,8 C 0,0 km/h (0 Bft) 0,00 %
17.07.2015 20:20 27,5 C 43 % 1012,1 hPa 0,0 l/m 0,0 km/h (0 Bft) NO 42 0 min 0,000 mm 0,0 UV-I 0 W/m 13,8 C 27,5 C 0,0 km/h (0 Bft) 0,00 %
17.07.2015 20:25 27,2 C 44 % 1012,4 hPa 0,0 l/m 0,0 km/h (0 Bft) NO 47 0 min 0,000 mm 0,0 UV-I 0 W/m 13,9 C 27,2 C 0,0 km/h (0 Bft) 0,00 %
17.07.2015 20:30 27,0 C 45 % 1012,5 hPa 0,0 l/m 0,0 km/h (0 Bft) NO 45 0 min 0,000 mm 0,0 UV-I 0 W/m 14,0 C 27,0 C 0,0 km/h (0 Bft) 0,00 %
17.07.2015 20:35 26,7 C 44 % 1012,6 hPa 0,0 l/m 0,0 km/h (0 Bft) NO 54 0 min 0,000 mm 0,0 UV-I 0 W/m 13,4 C 26,7 C 0,0 km/h (0 Bft) 0,00 %
17.07.2015 20:40 26,5 C 43 % 1012,6 hPa 0,0 l/m 0,0 km/h (0 Bft) NO 41 0 min 0,000 mm 0,0 UV-I 0 W/m 12,9 C 26,5 C 0,0 km/h (0 Bft) 0,00 %
17.07.2015 20:45 26,2 C 45 % 1012,3 hPa 0,0 l/m 0,0 km/h (0 Bft) NO 50 0 min 0,000 mm 0,0 UV-I 0 W/m 13,3 C 26,2 C 0,0 km/h (0 Bft) 0,00 %
17.07.2015 20:50 26,1 C 44 % 1012,7 hPa 0,0 l/m 0,0 km/h (0 Bft) NO 40 0 min 0,000 mm 0,0 UV-I 0 W/m 12,9 C 26,1 C 0,0 km/h (0 Bft) 0,00 %
17.07.2015 20:55 25,9 C 44 % 1012,7 hPa 0,0 l/m 0,0 km/h (0 Bft) NO 46 0 min 0,000 mm 0,0 UV-I 0 W/m 12,7 C 25,9 C 0,0 km/h (0 Bft) 0,00 %
17.07.2015 21:00 25,8 C 46 % 1012,5 hPa 0,0 l/m 0,0 km/h (0 Bft) O-NO 67 0 min 0,000 mm 0,0 UV-I 0 W/m 13,3 C 25,8 C 0,0 km/h (0 Bft) 0,00 %
17.07.2015 21:05 25,7 C 45 % 1012,7 hPa 0,0 l/m 0,0 km/h (0 Bft) NO 50 0 min 0,000 mm 0,0 UV-I 0 W/m 12,9 C 25,7 C 0,0 km/h (0 Bft) 0,00 %
17.07.2015 21:10 25,5 C 45 % 1012,6 hPa 0,0 l/m 0,0 km/h (0 Bft) NO 48 0 min 0,000 mm 0,0 UV-I 0 W/m 12,7 C 25,5 C 0,0 km/h (0 Bft) 0,00 %
17.07.2015 21:15 25,3 C 47 % 1012,5 hPa 0,0 l/m 0,0 km/h (0 Bft) O-NO 72 0 min 0,000 mm 0,0 UV-I 0 W/m 13,2 C 25,3 C 0,0 km/h (0 Bft) 0,00 %
17.07.2015 21:20 25,2 C 50 % 1012,7 hPa 0,0 l/m 0,0 km/h (0 Bft) NO 47 0 min 0,000 mm 0,0 UV-I 0 W/m 14,0 C 25,2 C 0,0 km/h (0 Bft) 0,00 %
17.07.2015 21:25 25,1 C 51 % 1012,7 hPa 0,0 l/m 0,0 km/h (0 Bft) NO 39 0 min 0,000 mm 0,0 UV-I 0 W/m 14,2 C 25,1 C 0,0 km/h (0 Bft) 0,00 %
17.07.2015 21:30 24,9 C 52 % 1012,6 hPa 0,0 l/m 0,0 km/h (0 Bft) N-NO 33 0 min 0,000 mm 0,0 UV-I 0 W/m 14,4 C 24,9 C 0,0 km/h (0 Bft) 0,00 %
17.07.2015 21:35 24,7 C 51 % 1012,8 hPa 0,0 l/m 0,0 km/h (0 Bft) NO 36 0 min 0,000 mm 0,0 UV-I 0 W/m 13,9 C 24,7 C 0,0 km/h (0 Bft) 0,00 %
17.07.2015 21:40 24,6 C 51 % 1012,8 hPa 0,0 l/m 0,0 km/h (0 Bft) N-NO 29 0 min 0,000 mm 0,0 UV-I 0 W/m 13,8 C 24,6 C 0,0 km/h (0 Bft) 0,00 %
17.07.2015 21:45 24,6 C 49 % 1012,7 hPa 0,0 l/m 0,0 km/h (0 Bft) NO 40 0 min 0,000 mm 0,0 UV-I 0 W/m 13,2 C 24,6 C 0,0 km/h (0 Bft) 0,00 %
17.07.2015 21:50 24,9 C 47 % 1012,6 hPa 0,0 l/m 0,0 km/h (0 Bft) NO 39 0 min 0,000 mm 0,0 UV-I 0 W/m 12,8 C 24,9 C 0,0 km/h (0 Bft) 0,00 %
17.07.2015 21:55 25,1 C 50 % 1012,6 hPa 0,0 l/m 0,0 km/h (0 Bft) NO 45 0 min 0,000 mm 0,0 UV-I 0 W/m 13,9 C 25,1 C 0,0 km/h (0 Bft) 0,00 %
17.07.2015 22:00 25,1 C 49 % 1012,7 hPa 0,0 l/m 0,0 km/h (0 Bft) NO 39 0 min 0,000 mm 0,0 UV-I 0 W/m 13,6 C 25,1 C 0,0 km/h (0 Bft) 0,00 %
17.07.2015 22:05 24,9 C 51 % 1013,0 hPa 0,0 l/m 0,0 km/h (0 Bft) N 354 0 min 0,000 mm 0,0 UV-I 0 W/m 14,1 C 24,9 C 0,0 km/h (0 Bft) 0,00 %
17.07.2015 22:10 24,7 C 51 % 1013,0 hPa 0,0 l/m 0,0 km/h (0 Bft) NO 38 0 min 0,000 mm 0,0 UV-I 0 W/m 13,9 C 24,7 C 0,0 km/h (0 Bft) 0,00 %
17.07.2015 22:15 24,6 C 52 % 1013,0 hPa 0,0 l/m 0,0 km/h (0 Bft) N-NO 33 0 min 0,000 mm 0,0 UV-I 0 W/m 14,1 C 24,6 C 0,0 km/h (0 Bft) 0,00 %
17.07.2015 22:20 24,4 C 51 % 1013,1 hPa 0,0 l/m 0,0 km/h (0 Bft) NO 36 0 min 0,000 mm 0,0 UV-I 0 W/m 13,6 C 24,4 C 0,0 km/h (0 Bft) 0,00 %
17.07.2015 22:25 24,3 C 50 % 1013,1 hPa 0,0 l/m 0,0 km/h (0 Bft) NO 35 0 min 0,000 mm 0,0 UV-I 0 W/m 13,2 C 24,3 C 0,0 km/h (0 Bft) 0,00 %
17.07.2015 22:30 24,2 C 52 % 1013,5 hPa 0,0 l/m 0,0 km/h (0 Bft) NO 40 0 min 0,000 mm 0,0 UV-I 0 W/m 13,7 C 24,2 C 0,0 km/h (0 Bft) 0,00 %
17.07.2015 22:35 24,2 C 53 % 1013,6 hPa 0,0 l/m 0,0 km/h (0 Bft) N-NO 33 0 min 0,000 mm 0,0 UV-I 0 W/m 14,0 C 24,2 C 0,0 km/h (0 Bft) 0,00 %
17.07.2015 22:40 24,3 C 52 % 1014,2 hPa 0,0 l/m 0,0 km/h (0 Bft) NO 45 0 min 0,000 mm 0,0 UV-I 0 W/m 13,8 C 24,3 C 0,0 km/h (0 Bft) 0,00 %
17.07.2015 22:45 24,4 C 49 % 1014,3 hPa 0,0 l/m 2,2 km/h (1 Bft) W-SW 256 0 min 0,000 mm 0,0 UV-I 0 W/m 13,0 C 24,4 C 4,0 km/h (1 Bft) 0,00 %
17.07.2015 22:50 25,0 C 49 % 1014,4 hPa 0,0 l/m 1,4 km/h (1 Bft) O-NO 63 0 min 0,000 mm 0,0 UV-I 0 W/m 13,5 C 25,0 C 4,0 km/h (1 Bft) 0,00 %
17.07.2015 22:55 25,5 C 45 % 1014,3 hPa 0,0 l/m 14,4 km/h (3 Bft) W-SW 256 0 min 0,000 mm 0,0 UV-I 0 W/m 12,7 C 24,0 C 19,8 km/h (3 Bft) 0,00 %
17.07.2015 23:00 25,8 C 46 % 1014,1 hPa 0,0 l/m 0,4 km/h (0 Bft) O-NO 60 0 min 0,000 mm 0,0 UV-I 0 W/m 13,3 C 25,8 C 4,0 km/h (1 Bft) 0,00 %
17.07.2015 23:05 25,8 C 46 % 1014,4 hPa 0,0 l/m 4,3 km/h (1 Bft) N-NW 331 0 min 0,000 mm 0,0 UV-I 0 W/m 13,3 C 25,8 C 7,9 km/h (2 Bft) 0,00 %
17.07.2015 23:10 25,6 C 46 % 1014,3 hPa 0,0 l/m 4,0 km/h (1 Bft) N-NW 330 0 min 0,000 mm 0,0 UV-I 0 W/m 13,1 C 25,6 C 7,9 km/h (2 Bft) 0,00 %
17.07.2015 23:15 25,5 C 46 % 1014,3 hPa 0,0 l/m 2,2 km/h (1 Bft) N 3 0 min 0,000 mm 0,0 UV-I 0 W/m 13,0 C 25,5 C 4,0 km/h (1 Bft) 0,00 %
17.07.2015 23:20 25,3 C 45 % 1014,4 hPa 0,0 l/m 4,7 km/h (1 Bft) O-NO 61 0 min 0,000 mm 0,0 UV-I 0 W/m 12,5 C 25,3 C 7,9 km/h (2 Bft) 0,00 %
17.07.2015 23:25 25,2 C 45 % 1014,5 hPa 0,0 l/m 1,4 km/h (1 Bft) NO 45 0 min 0,000 mm 0,0 UV-I 0 W/m 12,4 C 25,2 C 4,0 km/h (1 Bft) 0,00 %
17.07.2015 23:30 25,1 C 46 % 1014,6 hPa 0,0 l/m 0,0 km/h (0 Bft) NO 46 0 min 0,000 mm 0,0 UV-I 0 W/m 12,7 C 25,1 C 0,0 km/h (0 Bft) 0,00 %
17.07.2015 23:35 24,9 C 47 % 1014,8 hPa 0,0 l/m 0,0 km/h (0 Bft) NO 37 0 min 0,000 mm 0,0 UV-I 0 W/m 12,8 C 24,9 C 0,0 km/h (0 Bft) 0,00 %
17.07.2015 23:40 24,7 C 47 % 1014,9 hPa 0,0 l/m 0,4 km/h (0 Bft) O-SO 114 0 min 0,000 mm 0,0 UV-I 0 W/m 12,6 C 24,7 C 4,0 km/h (1 Bft) 0,00 %
17.07.2015 23:45 24,6 C 46 % 1015,1 hPa 0,0 l/m 0,0 km/h (0 Bft) N-NW 330 0 min 0,000 mm 0,0 UV-I 0 W/m 12,2 C 24,6 C 0,0 km/h (0 Bft) 0,00 %
17.07.2015 23:50 24,5 C 46 % 1015,2 hPa 0,0 l/m 0,0 km/h (0 Bft) NO 46 0 min 0,000 mm 0,0 UV-I 0 W/m 12,1 C 24,5 C 0,0 km/h (0 Bft) 0,00 %
17.07.2015 23:55 24,4 C 47 % 1015,6 hPa 0,0 l/m 0,0 km/h (0 Bft) O 81 0 min 0,000 mm 0,0 UV-I 0 W/m 12,3 C 24,4 C 0,0 km/h (0 Bft) 0,00 %
_ Min-Zeit 05:25 17:10 17:50 - 00:00 - - - - - - 17:15 05:25 00:00 00:00
Minimum _ 16,5 C 20 % 1010,6 hPa - 0,0 km/h (0 Bft) - - - - - - 8,8 C 16,5 C 0,0 km/h (0 Bft) 0,00 %
_ Max-Zeit 16:45 04:25 04:50 00:00 22:55 - - 05:45 00:00 11:35 15:00 10:55 16:45 22:55 00:00
Maximum _ 35,6 C 86 % 1016,3 hPa 0,0 l/m 14,4 km/h
W-SW (3 Bft)
- - 5 min 0,000 mm 5,0 UV-I 953 W/m 17,4 C 35,6 C 19,8 km/h
W-SW (3 Bft)
0,00 %
Durchschnitt _ 26,9 C 49 % 1013,7 hPa #0,0 l/m 0,6 km/h (0 Bft) O - #12:40 h #0,000 mm 2,8 UV-I 584 W/m 13,6 C 26,9 C 1,3 km/h (1 Bft) 0,00 %